Weather History for St. Joseph, MO

Change the Weather History Date:

Monday, November 5, 2012

  Actual Average Record
Temperature  
Mean Temperature 46 °F 47 °F  
Max Temperature 49 °F 58 °F 81 °F (1924)
Min Temperature 42 °F 36 °F 17 °F (1959)
Degree Days  
Heating Degree Days 19 18  
Month to date heating degree days 85 86  
Since 1 July heating degree days 586 505  
Cooling Degree Days 0 0  
Month to date cooling degree days 0 0  
Year to date cooling degree days 1560 1220  
Moisture  
Dew Point 42 °F    
Average Humidity 88    
Maximum Humidity 93    
Minimum Humidity 82    
Precipitation  
Precipitation 0.12 in 0.08 in 0.61 in (2013)
Month to date precipitation 0.19 0.43  
Year to date precipitation 20.71 32.96  
Sea Level Pressure  
Sea Level Pressure 30.06 in    
Wind  
Wind Speed 8 mph (North)    
Max Wind Speed 20 mph    
Max Gust Speed 23 mph    
Visibility 5 miles    
Events Rain    
T = Trace of Precipitation, MM = Missing Value Source: NWS Daily Summary

Daily Weather History Graph

Daily Weather History Graph

Search for Another Location

Airport:

Trip Planner

Search our weather history database for the weather conditions in past years. The results will help you decide how hot, cold, wet, or windy it might be!

Date:

Astronomy

Nov. 05, 2012 Rise Set
Actual Time 6:53 AM CST 5:12 PM CST
Civil Twilight 6:25 AM CST 5:40 PM CST
Nautical Twilight 5:53 AM CST 6:12 PM CST
Astronomical Twilight 5:21 AM CST 6:44 PM CST
Moon 10:51 PM CST (11/5) 12:13 PM CST (11/5)
Length of Visible Light 11h 15m
Length of Day
10h 19m
Waning Gibbous, 62% of the Moon is Illuminated
Nov 5
Waning Gibbous
Nov 6
Last Quarter
Nov 13
New
Nov 20
First Quarter
Nov 28
Full

Hourly Weather History & Observations

Time (CST) Temp. Windchill Dew Point Humidity Pressure Visibility Wind Dir Wind Speed Gust Speed Precip Events Conditions
12:53 AM 48.0 °F - 45.0 °F 89% 30.01 in 9.0 mi Calm Calm - 0.02 in Rain Light Rain
1:53 AM 46.9 °F - 44.1 °F 90% 30.00 in 10.0 mi SSE 4.6 mph - 0.00 in   Overcast
2:15 AM 48.2 °F - 44.6 °F 87% 30.01 in 6.0 mi NW 5.8 mph - N/A   Overcast
2:37 AM 48.2 °F - 44.6 °F 87% 30.01 in 4.0 mi NW 8.1 mph - 0.00 in Rain Light Rain
2:51 AM 48.2 °F - 46.4 °F 93% 30.01 in 4.0 mi NW 8.1 mph - 0.02 in Rain Light Rain
2:53 AM 48.0 °F - 46.0 °F 93% 30.01 in 4.0 mi NW 9.2 mph - 0.02 in Rain Light Rain
3:00 AM 48.2 °F - 46.4 °F 93% 30.01 in 4.0 mi NW 8.1 mph - 0.01 in Rain Light Rain
3:53 AM 48.0 °F - 45.0 °F 89% 29.99 in 6.0 mi NW 5.8 mph - 0.02 in Rain Light Rain
4:02 AM 46.4 °F 41.9 °F 44.6 °F 93% 29.99 in 6.0 mi NW 9.2 mph - 0.00 in   Overcast
4:53 AM 46.9 °F - 45.0 °F 93% 29.99 in 5.0 mi NW 9.2 mph - 0.01 in Rain Light Rain
5:53 AM 46.9 °F - 44.1 °F 90% 29.99 in 5.0 mi NNW 12.7 mph - 0.01 in Rain Light Rain
6:53 AM 46.9 °F - 44.1 °F 90% 30.00 in 6.0 mi North 16.1 mph 23.0 mph 0.03 in Rain Light Rain
7:37 AM 46.4 °F 41.9 °F 44.6 °F 93% 30.01 in 4.0 mi North 9.2 mph - 0.01 in Rain Light Rain
7:53 AM 46.9 °F - 44.1 °F 90% 30.02 in 5.0 mi North 9.2 mph - 0.01 in   Overcast
8:53 AM 45.0 °F 38.9 °F 43.0 °F 93% 30.04 in 3.0 mi NNE 12.7 mph - N/A   Overcast
9:01 AM 44.6 °F 38.8 °F 42.8 °F 93% 30.04 in 2.0 mi NNE 11.5 mph - N/A   Overcast
9:51 AM 44.6 °F 39.2 °F 42.8 °F 93% 30.06 in 5.0 mi NNE 10.4 mph - N/A   Overcast
9:53 AM 44.1 °F 38.6 °F 42.1 °F 93% 30.06 in 5.0 mi NNE 10.4 mph - N/A   Overcast
10:53 AM 44.1 °F 37.1 °F 41.0 °F 89% 30.09 in 5.0 mi NNE 15.0 mph - 0.00 in   Overcast
11:53 AM 43.0 °F 36.8 °F 39.9 °F 89% 30.09 in 5.0 mi NNE 11.5 mph - N/A   Overcast
12:53 PM 43.0 °F 36.4 °F 39.9 °F 89% 30.09 in 5.0 mi NNE 12.7 mph - N/A   Overcast
1:53 PM 43.0 °F 36.4 °F 39.9 °F 89% 30.10 in 5.0 mi NNE 12.7 mph - N/A   Overcast
2:53 PM 43.0 °F 36.4 °F 39.0 °F 86% 30.09 in 5.0 mi NNE 12.7 mph - N/A   Overcast
3:53 PM 43.0 °F 36.4 °F 39.0 °F 86% 30.12 in 6.0 mi North 12.7 mph - N/A   Overcast
4:38 PM 42.8 °F 38.0 °F 39.2 °F 87% 30.11 in 6.0 mi North 8.1 mph - N/A   Overcast
4:53 PM 43.0 °F 38.2 °F 39.0 °F 86% 30.13 in 6.0 mi North 8.1 mph - N/A   Overcast
5:53 PM 43.0 °F 39.5 °F 39.0 °F 86% 30.14 in 6.0 mi NNE 5.8 mph - N/A   Overcast
6:53 PM 42.1 °F 36.6 °F 37.9 °F 85% 30.14 in 6.0 mi NE 9.2 mph - N/A   Overcast
7:53 PM 42.1 °F 39.2 °F 37.9 °F 85% 30.14 in 6.0 mi NE 4.6 mph - N/A   Overcast
8:29 PM 42.8 °F 40.1 °F 39.2 °F 87% 30.12 in 6.0 mi ENE 4.6 mph - N/A   Overcast
8:53 PM 42.1 °F 39.2 °F 37.9 °F 85% 30.14 in 6.0 mi NE 4.6 mph - N/A   Overcast
9:53 PM 42.1 °F - 37.9 °F 85% 30.14 in 5.0 mi Calm Calm - N/A   Overcast
10:08 PM 42.8 °F - 37.4 °F 81% 30.12 in 5.0 mi Calm Calm - N/A   Overcast
10:53 PM 42.1 °F - 39.0 °F 89% 30.12 in 5.0 mi Calm Calm - N/A   Overcast
11:53 PM 42.1 °F - 39.0 °F 89% 30.12 in 4.0 mi Calm Calm - N/A   Overcast